Location: Blairvadach
(56.2780°N, 6.9720°W)
Time: 21:06:33
(UTC+00:00)

Envisat - Pass Details

Date: 22 February 2019
Orbit: 764 x 766 km, 98.2° (Epoch: 22 March)

Event Time Altitude Azimuth Distance (km) Brightness Sun altitude
Rises 06:18:06 0° 27° (NNE) 3,247 6.6 -11.8°
Reaches altitude 10° 06:22:10 10° 60° (ENE) 2,313 6.4 -11.2°
Maximum altitude 06:23:58 12° 80° (E) 2,190 6.8 -11.0°
Drops below altitude 10° 06:25:45 10° 101° (ESE) 2,307 7.0 -10.7°
Sets 06:29:47 0° 133° (SE) 3,226 7.1 -10.1°
